SCP
0 0 0 0 0 0 0 0 0 0 0 0 0 0 0 0 0 0 0 0 0 0 0 0 0 0 0 0 0 0 0 0 0 0 0 0 0 0 0 0 0 0 0
0 0 0 0 0 0 0 0 0 0 0 0 0 0 0 0 0 0 0 0 0 0 0 0 0 0 0 0 0 0 0 0 0 0 0 0 0 0 0 0 0 0 0
0 0 0 0 0 0 0 0 0 0 0 0 0 0 0 0 0 0 0 0 0 0 0 0 0 0 0 0 0 0 0 0 0 0 0 0 0 0 0 0 0 0 0
0 0 0 0 0 0 0 0 0 0 0 0 0 0 0 0 0 0 0 0 0 0 0 0 0 0 0 0 0 0 0 0 0 0 0 0 0 0 0 0 0 0 0
0 0 0 0 0 0 0 0 0 0 0 0 0 0 0 0 0 0 0 0 0 0 0 0 0 0 0 0 0 0 0 0 0 0 0 0 0 0 0 0 0 0 0
0 0 0 0 0 0 0 0 0 0 0 0 0 0 0 0 0 0 0 0 0 0 0 0 0 0 0 0 0 0 0 0 0 0 0 0 0 0 0 0 0 0 0
0 0 0 0 0 0 0 0 0 0 0 0 0 0 0 0 0 0 0 0 0 0 0 0 0 0 0 0 0 0 0 0 0 0 0 0 0 0 0 0 0 0 0
0 0 0 0 0 0 0 0 0 0 0 0 0 0 0 0 0 0 0 0 0 0 0 0 0 0 0 0 0 0 0 0 0 0 0 0 0 0 0 0 0 0 0
0 0 0 0 0 0 0 0 0 0 0 0 0 0 0 0 0 0 0 0 0 0 0 0 0 0 0 0 0 0 0 0 0 0 0 0 0 0 0 0 0 0 0
0 0 0 0 0 0 0 0 0 0 0 0 0 0 0 0 0 0 0 0 0 0 0 0 0 0 0 0 0 0 0 0 0 0 0 0 0 0 0 0 0 0 0
0 0 0 0 0 0 0 0 0 0 0 0 0 0 0 0 0 0 0 0 0 0 0 0 0 0 0 0 0 0 0 0 0 0 0 0 0 0 0 0 0 0 0
0 0 0 0 0 0 0 0 0 0 0 0 0 0 0 0 0 0 0 0 0 0 0 0 0 0 0 0 0 0 0 0 0 0 0 0 0 0 0 0 0 0 0
0 0 0 0 0 0 0 0 0 0 0 0 0 0 0 0 0 0 0 0 0 0 0 0 0 0 0 0 0 0 0 0 0 0 0 0 0 0 0 0 0 0 0
0 0 0 0 0 0 0 0 0 0 0 0 0 0 0 0 0 0 0 0 0 0 0 0 0 0 0 0 0 0 0 0 0 0 0 0 0 0 0 0 0 0 0
0 0 0 0 0 0 0 0 0 0 0 0 0 0 0 0 0 0 0 0 0 0 0 0 0 0 0 0 0 0 0 0 0 0 0 0 0 0 0 0 0 0 0
0 0 0 0 0 0 0 0 0 0 0 0 0 0 0 0 0 0 0 0 0 0 0 0 0 0 0 0 0 0 0 0 0 0 0 0 0 0 0 0 0 0 0
0 0 0 0 0 0 0 0 0 0 0 0 0 0 0 0 0 0 0 0 0 0 0 0 0 0 0 0 0 0 0 0 0 0 0 0 0 0 0 0 0 0 0
0 0 0 0 0 0 0 0 0 0 0 0 0 0 0 0 0 0 0 0 0 0 0 0 0 0 0 0 0 0 0 0 0 0 0 0 0 0 0 0 0 0 0
0 0 0 0 0 0 0 0 0 0 0 0 0 0 0 0 0 0 0 0 0 0 0 0 0 0 0 0 0 0 0 0 0 0 0 0 0 0 0 0 0 0 0
0 0 0 0 0 0 0 0 0 0 0 0 0 0 0 0 0 0 0 0 0 0 0 0 0 0 0 0 0 0 0 0 0 0 0 0 0 0 0 0 0 0 0
0 0 0 0 0 0 0 0 0 0 0 0 0 0 0 0 0 0 0 0 0 0 0 0 0 0 0 0 0 0 0 0 0 0 0 0 0 0 0 0 0 0 0
0 0 0 0 0 0 0 0 0 0 0 0 0 0 0 0 0 0 0 0 0 0 0 0 0 0 0 0 0 0 0 0 0 0 0 0 0 0 0 0 0 0 0
0 0 0 0 0 0 0 0 0 0 0 0 0 0 0 0 0 0 0 0 0 0 0 0 0 0 0 0 0 0 0 0 0 0 0 0 0 0 0 0 0 0 0
0 0 0 0 0 0 0 0 0 0 0 0 0 0 0 0 0 0 0 0 0 0 0 0 0 0 0 0 0 0 0 0 0 0 0 0 0 0 0 0 0 0 0
0 0 0 0 0 0 0 0 0 0 0 0 0 0 0 0 0 0 0 0 0 0 0 0 0 0 0 0 0 0 0 0 0 0 0 0 0 0 0 0 0 0 0
0 0 0 0 0 0 0 0 0 0 0 0 0 0 0 0 0 0 0 0 0 0 0 0 0 0 0 0 0 0 0 0 0 0 0 0 0 0 0 0 0 0 0
Wind_Speed
5 6 6 5 5 5 4 5 5 4 4 4 3 3 3 4 4 3 4 3 3 3 3 4 4 3 3 3 3 3 3 2 3 2 1 1 2 2 1 1 1 2 3
5 5 6 6 5 5 5 5 5 5 4 4 4 4 4 4 4 4 4 4 4 4 4 4 5 3 4 4 3 4 3 3 3 3 2 1 2 3 2 2 1 2 2
5 5 6 6 6 5 5 6 5 5 5 5 4 4 4 4 4 4 4 5 4 4 4 5 5 4 5 4 4 4 3 3 3 3 3 2 1 2 2 1 1 1 2
6 6 6 6 6 6 5 5 6 5 5 5 5 5 4 4 4 4 4 4 4 4 5 5 5 5 5 5 5 5 4 4 3 3 3 3 2 2 2 2 1 1 2
6 6 6 6 6 5 6 5 5 5 6 5 5 5 4 4 4 4 4 5 5 5 5 5 5 6 7 6 5 5 5 4 4 4 4 3 3 3 4 3 3 1 1
6 6 7 6 6 6 6 6 6 5 5 5 5 5 5 5 7 9 6 4 4 5 5 5 5 6 7 8 9 9 8 7 6 5 4 5 5 4 3 4 3 2 2
7 7 7 6 6 6 6 6 6 6 5 5 5 5 5 6 9 9 9 5 4 5 5 4 4 4 6 5 7 8 8 10 10 7 6 6 6 6 6 5 5 3 2
7 7 7 6 6 6 6 6 6 5 5 5 5 5 5 7 9 9 9 5 4 5 5 5 5 4 5 5 4 5 5 6 7 6 6 6 5 5 6 5 5 2 1
7 7 7 7 7 7 6 6 6 5 6 5 5 5 5 6 8 9 8 3 3 4 4 5 5 5 7 7 5 4 4 4 4 6 6 6 7 7 5 4 5 4 2
7 7 7 7 7 7 7 6 6 5 6 6 6 5 6 6 7 8 8 3 3 4 4 4 6 6 7 7 5 4 5 4 3 2 3 3 4 6 7 6 6 5 3
7 7 7 7 7 7 6 5 6 6 5 5 6 5 4 5 6 8 8 3 3 3 3 3 3 6 7 7 6 4 5 4 3 3 3 3 3 3 4 3 3 4 4
7 7 7 7 7 7 6 6 5 5 5 5 4 4 3 4 6 7 8 7 6 4 3 3 3 5 6 6 5 4 4 4 3 3 3 3 3 3 3 3 2 1 1
7 7 7 7 6 6 5 5 5 4 4 4 4 4 4 3 4 7 8 7 7 4 3 4 5 5 4 3 4 4 4 3 3 4 3 3 3 3 3 3 2 2 2
7 7 7 6 6 6 5 5 4 4 4 4 4 4 4 4 3 3 3 3 4 3 2 2 3 3 3 2 2 2 2 3 3 3 3 3 2 3 3 3 3 2 1
7 7 7 6 6 5 5 4 5 4 5 6 4 4 4 4 6 8 5 4 3 3 3 1 1 1 1 1 1 1 1 2 2 2 3 3 3 2 2 2 2 2 2
7 7 5 5 5 5 5 5 7 8 10 10 9 7 6 7 10 9 8 7 6 5 3 1 2 2 2 2 1 1 1 2 2 2 3 3 3 3 3 2 2 2 3
6 7 5 5 5 5 5 5 6 7 9 9 9 9 8 9 9 8 8 7 6 4 1 2 2 2 2 2 2 2 2 1 2 2 2 3 3 3 3 3 3 3 3
6 7 7 5 5 5 5 5 5 5 6 5 6 9 9 9 8 8 7 5 3 2 1 2 2 2 2 2 2 2 1 1 1 2 2 3 3 3 3 3 3 4 3
6 5 4 4 4 4 4 4 4 5 5 5 5 6 8 8 8 7 6 2 2 2 2 2 2 2 2 2 2 2 2 2 2 2 2 3 3 3 3 3 3 5 4
5 9 7 5 4 4 4 4 4 4 4 4 5 5 5 4 3 3 3 2 2 2 2 2 2 2 2 2 2 2 2 2 2 2 2 2 2 3 3 4 4 4 3
5 6 9 6 4 4 4 4 4 4 4 4 4 6 8 4 3 3 3 3 3 3 2 2 2 2 2 2 2 2 3 2 2 2 2 2 3 3 3 3 3 3 3
4 4 4 4 4 4 4 4 4 4 5 5 5 5 9 4 3 3 3 3 3 2 2 2 2 2 2 2 2 2 2 3 3 3 3 3 3 3 3 3 3 3 3
4 5 5 5 4 6 6 4 4 4 4 5 5 5 4 4 3 3 3 3 3 3 2 2 2 2 2 2 2 2 3 3 3 3 3 3 3 3 3 3 4 4 4
4 5 5 5 4 4 4 4 4 5 5 4 4 4 4 4 4 4 3 3 3 3 3 2 2 3 3 2 2 2 2 2 2 3 4 4 3 3 3 3 4 4 4
4 4 4 4 4 4 4 4 4 5 5 5 5 5 4 4 4 4 3 3 3 3 3 3 2 2 3 3 3 3 3 5 5 3 3 3 4 4 4 4 3 4 4
4 4 4 4 4 4 4 4 5 5 5 5 4 4 4 4 4 4 3 3 3 3 3 3 3 3 3 3 3 4 5 5 5 5 3 2 3 3 3 3 4 3 4
Wind_Direction
333 328 326 323 322 321 315 311 307 306 299 289 284 279 284 287 289 285 274 258 252 255 247 235 233 228 210 206 205 205 209 193 220 256 239 181 169 166 165 156 162 185 179
327 326 322 320 319 317 316 316 316 312 309 301 291 279 276 279 278 276 280 273 256 254 251 241 234 228 221 211 210 212 212 203 196 221 226 197 196 183 176 177 196 182 174
326 323 321 321 319 315 313 314 315 311 308 305 296 288 280 275 273 269 270 274 265 258 251 244 239 224 224 218 213 210 210 209 195 199 212 200 195 174 158 159 153 182 183
321 320 317 315 311 310 311 311 309 306 302 299 296 290 285 281 273 267 267 268 270 269 263 252 243 227 224 218 219 212 206 200 192 197 203 189 186 173 154 161 173 208 203
320 318 314 311 307 305 308 307 305 302 299 297 296 291 287 284 277 274 262 261 264 267 265 256 248 242 235 229 227 214 206 203 197 203 202 191 189 180 186 180 184 185 221
313 310 311 311 312 310 309 306 304 301 297 296 295 292 286 283 287 284 277 265 263 263 267 266 255 240 237 238 239 231 216 207 202 205 209 201 201 195 182 178 169 167 218
313 313 314 314 311 309 309 308 304 302 300 295 294 294 285 281 284 283 281 273 261 260 261 261 262 250 240 234 238 236 230 227 217 211 215 211 199 194 182 184 185 187 211
315 316 319 318 312 308 306 304 303 301 299 297 293 290 286 285 289 288 288 280 263 258 255 249 250 248 241 235 229 226 227 230 222 218 220 216 207 194 192 189 179 169 168
316 317 318 317 312 308 304 300 300 300 298 293 290 288 286 283 289 292 295 278 271 264 259 250 245 242 243 240 229 222 226 231 228 224 221 211 204 202 190 162 161 168 203
313 312 313 311 306 301 298 298 298 293 291 293 289 281 277 277 286 294 299 277 273 271 263 251 247 251 249 242 232 218 222 222 206 207 196 187 187 187 194 194 182 182 185
311 310 308 306 304 300 297 297 296 295 294 290 287 283 278 284 291 294 297 288 273 274 272 270 262 253 249 248 249 235 228 225 209 197 181 172 169 176 182 187 190 187 189
308 306 305 305 304 306 303 302 299 298 296 294 290 289 283 287 292 291 295 295 298 280 272 273 275 269 255 252 251 238 230 231 213 192 182 184 182 183 177 167 164 171 196
307 305 304 304 301 301 299 299 299 296 294 297 296 296 297 295 289 294 299 300 302 296 277 275 282 282 277 257 238 231 224 215 198 190 190 194 184 174 155 136 117 106 72
309 305 303 302 302 301 299 296 296 295 293 295 296 297 298 301 301 296 297 301 306 304 290 275 287 290 279 265 241 224 219 209 195 189 180 169 155 161 166 161 161 152 140
309 307 306 303 300 297 296 293 295 283 288 294 287 286 292 294 296 302 306 304 300 293 304 289 274 267 261 245 236 229 214 193 188 174 166 164 170 173 173 171 174 177 194
310 309 307 305 302 302 301 304 303 303 307 305 302 298 293 293 304 304 302 305 303 298 295 242 253 252 256 255 246 239 219 194 183 173 168 174 183 186 181 176 177 182 192
303 304 304 305 304 303 303 305 310 315 313 312 311 309 306 306 307 310 307 306 298 293 280 245 244 243 250 249 241 233 230 202 179 177 174 178 185 189 185 187 188 189 200
303 301 302 300 300 299 299 300 303 308 314 315 312 312 314 313 312 314 315 324 312 299 281 265 259 247 245 242 233 228 216 193 181 183 181 182 185 186 189 194 193 194 201
307 304 301 298 298 297 299 300 300 301 304 309 314 316 318 316 315 316 321 324 308 303 303 288 274 258 249 244 230 219 211 205 194 187 189 191 190 186 195 201 199 203 211
309 311 312 306 300 300 300 300 301 301 302 303 307 311 315 314 314 318 314 306 299 293 291 289 286 274 257 244 231 222 220 211 198 194 197 199 202 199 199 203 206 206 214
311 311 313 310 303 301 300 300 298 297 297 298 299 304 310 311 308 307 304 300 294 291 292 290 285 275 263 255 240 226 223 220 212 202 200 201 203 205 206 207 211 214 210
310 306 305 302 301 301 300 295 294 295 297 297 301 305 309 311 306 300 297 296 295 293 293 288 280 271 259 251 245 238 228 222 215 205 203 204 205 205 204 206 207 211 207
311 309 305 304 302 305 308 306 302 298 297 297 300 303 304 304 303 301 300 302 306 307 302 288 280 278 272 264 253 238 232 230 224 211 206 208 208 207 204 206 208 212 213
307 305 304 302 304 305 307 307 306 307 308 306 304 303 303 302 303 303 303 304 307 307 302 293 281 277 277 279 276 267 257 250 243 228 210 202 205 207 206 208 214 213 214
313 311 313 314 313 311 309 308 308 309 309 309 308 308 309 309 308 307 306 307 306 303 305 305 296 283 276 277 274 267 262 266 269 250 212 200 200 205 206 208 211 210 215
320 321 320 318 317 315 312 311 310 311 310 310 311 312 313 313 312 311 311 312 310 307 305 304 299 293 286 282 275 269 267 266 263 260 242 199 196 201 200 204 206 211 213